SCP
0 0 0 0 0 0 0 0 0 0 0 0 0 0 0 0 0 0 0 0 0 0 0 0 0 0 0 0 0 0 0 0 0 0 0 0 0 0
0 0 0 0 0 0 0 0 0 0 0 0 0 0 0 0 0 0 0 0 0 0 0 0 0 0 0 0 0 0 0 0 0 0 0 0 0 0
0 0 0 0 0 0 0 0 0 0 0 0 0 0 0 0 0 0 0 0 0 0 0 0 0 0 0 0 0 0 0 0 0 0 0 0 0 0
0 0 0 0 0 0 0 0 0 0 0 0 0 0 0 0 0 0 0 0 0 0 0 0 0 0 0 0 0 0 0 0 0 0 0 0 0 0
0 0 0 0 0 0 0 0 0 0 0 0 0 0 0 0 0 0 0 0 0 0 0 0 0 0 0 0 0 0 0 0 0 0 0 0 0 0
0 0 0 0 0 0 0 0 0 0 0 0 0 0 0 0 0 0 0 0 0 0 0 0 0 0 0 0 0 0 0 0 0 0 0 0 0 0
0 0 0 0 0 0 0 0 0 0 0 0 0 0 0 0 0 0 0 0 0 0 0 0 0 0 0 0 0 0 0 0 0 0 0 0 0 0
0 0 0 0 0 0 0 0 0 0 0 0 0 0 0 0 0 0 0 0 0 0 0 0 0 0 0 0 0 0 0 0 0 0 0 0 0 0
0 0 0 0 0 0 0 0 0 0 0 0 0 0 0 0 0 0 0 0 0 0 0 0 0 0 0 0 0 0 0 0 0 0 0 0 0 0
0 0 0 0 0 0 0 0 0 0 0 0 0 0 0 0 0 0 0 0 0 0 0 0 0 0 0 0 0 0 0 0 0 0 0 0 0 0
0 0 0 0 0 0 0 0 0 0 0 0 0 0 0 0 0 0 0 0 0 0 0 -0 -0 0 0 0 0 0 0 0 0 0 0 0 0 0
0 0 0 0 0 0 0 0 0 0 0 0 0 0 0 0 0 0 0 0 0 -0 -0 -0 -0 0 0 0 0 0 0 0 0 0 0 0 0 0
0 0 0 0 0 0 0 0 0 0 0 0 0 0 0 0 0 0 0 0 0 -0 -0 -0 -0 0 0 -0 -0 -0 0 0 0 0 0 0 0 0
0 0 0 0 0 0 0 0 0 0 0 0 0 0 0 0 0 0 0 0 0 -0 -0 -0 0 0 0 -0 -0 -0 -0 -0 0 0 0 0 0 0
0 0 0 0 0 0 0 0 0 0 0 0 0 0 0 0 0 0 0 0 0 0 0 0 0 0 0 -0 -0 -0 -0 0 0 0 0 0 0 0
0 0 0 0 0 0 0 0 0 0 0 0 0 0 0 0 0 0 0 0 0 0 0 0 0 0 0 0 -0 -0 -0 -0 -0 -0 0 0 0 0
0 0 0 0 0 0 0 0 0 0 0 0 0 0 0 0 0 0 0 0 0 0 0 0 0 0 0 0 0 0 -0 -0 -0 -0 -0 0 0 0
0 0 0 0 0 -0 -0 0 0 0 0 0 0 0 0 0 0 0 0 0 0 0 0 0 0 0 0 0 0 0 -0 -0 -0 -0 -0 0 0 0
0 0 0 0 0 0 -0 -0 0 0 0 0 0 0 0 0 0 0 0 0 0 0 0 0 0 0 0 0 0 0 0 0 0 0 0 0 0 0
0 0 0 0 0 0 0 0 0 0 0 0 0 0 0 0 0 0 0 0 0 0 0 0 0 0 0 0 0 0 0 0 0 0 0 0 0 0
0 0 0 0 0 0 0 0 0 0 0 0 0 0 0 0 0 0 0 0 0 0 0 0 0 0 0 0 0 0 0 0 0 0 0 0 0 0
0 0 0 0 0 0 0 0 0 0 0 0 0 0 0 0 0 0 0 0 0 0 0 0 0 0 0 0 0 0 0 0 0 0 0 0 0 0
0 0 0 0 0 0 0 0 0 0 0 0 0 0 0 0 0 0 0 0 0 0 0 0 0 0 0 0 0 0 0 0 0 0 0 0 0 0
Wind_Speed
2 3 2 2 1 1 1 2 3 3 4 3 2 1 1 1 2 2 2 4 5 6 7 7 7 8 8 9 10 10 11 11 11 12 13 13 14 14
2 2 3 2 2 2 2 2 2 3 4 2 2 1 1 2 3 2 3 5 5 6 7 8 9 9 9 9 10 11 11 12 12 12 13 14 14 15
2 2 3 2 2 2 2 2 2 2 5 3 1 1 1 2 2 2 3 3 3 6 8 9 9 9 9 10 10 11 11 11 12 12 13 13 14 15
3 2 3 2 2 2 2 3 3 3 4 5 3 1 2 2 2 3 3 3 3 6 8 9 9 9 10 10 10 10 11 11 11 11 12 13 14 14
3 3 3 2 3 2 2 2 2 3 3 4 3 2 2 2 2 3 3 3 3 5 8 8 9 10 10 11 11 10 10 10 10 11 11 12 13 13
2 3 3 3 3 3 3 3 2 2 3 3 3 2 2 2 1 2 3 3 4 3 5 6 7 9 10 11 10 9 9 10 10 10 10 11 12 12
2 2 2 2 2 3 3 3 3 2 2 3 3 3 2 2 2 2 4 3 4 2 3 3 4 4 5 7 8 9 10 10 10 10 10 11 11 12
1 1 1 1 2 3 4 4 4 4 4 4 4 4 5 4 2 2 3 3 4 2 2 4 3 4 4 3 7 10 10 10 10 11 11 11 11 11
2 1 1 1 2 2 3 4 4 4 4 4 5 5 5 4 3 3 3 4 5 3 2 4 2 4 4 5 8 10 10 10 10 11 11 11 11 11
2 2 2 2 2 2 2 3 3 4 4 4 5 5 4 4 4 4 4 4 3 2 2 4 3 3 4 4 7 9 9 9 9 10 10 11 11 11
2 2 2 2 4 3 3 3 4 4 5 6 7 6 6 5 4 2 2 2 4 3 1 2 2 3 3 4 4 7 8 9 10 11 11 11 11 10
1 1 2 3 4 4 3 4 5 5 3 4 5 5 5 4 4 3 3 3 3 3 2 1 2 2 4 2 2 3 4 8 10 10 11 11 11 6
2 2 2 4 5 6 5 4 6 5 3 3 3 3 2 2 2 2 2 3 4 4 2 1 1 1 3 4 3 3 3 3 4 6 9 10 11 8
3 2 3 5 6 7 5 5 6 4 2 2 3 3 3 3 3 3 3 3 4 4 3 2 2 2 3 4 5 3 3 3 3 4 4 8 9 10
3 5 6 6 7 5 6 6 4 2 2 3 3 4 3 3 2 2 2 3 3 3 2 2 3 3 3 4 5 4 4 4 3 3 4 4 4 4
3 4 6 6 5 5 4 3 2 2 3 3 3 3 2 2 2 2 3 2 3 3 2 3 3 3 4 4 5 5 4 4 3 4 4 4 4 4
4 3 2 2 2 2 2 2 2 2 3 3 3 3 3 3 3 2 2 2 3 3 2 1 2 2 3 4 5 5 4 4 4 3 3 4 4 4
3 3 3 3 3 3 3 3 2 3 3 3 3 3 3 3 3 2 2 3 3 3 3 2 1 2 2 3 5 5 4 4 3 3 3 4 5 4
2 3 3 4 3 3 3 3 3 3 3 3 3 3 3 3 3 3 2 3 3 3 3 2 2 2 3 5 4 4 4 3 3 3 3 3 5 5
2 3 4 4 3 3 3 3 3 3 2 3 3 3 3 3 3 3 3 3 3 3 3 2 3 3 4 5 4 4 6 4 3 4 4 3 4 7
3 3 3 4 4 4 4 3 3 3 3 3 3 3 3 3 4 3 3 4 3 3 4 4 4 3 2 1 3 4 4 6 6 4 4 4 4 4
3 4 4 4 4 4 4 3 3 3 4 4 4 3 3 3 4 4 3 3 3 3 4 3 2 1 2 3 5 5 5 5 6 8 7 6 4 4
4 4 4 4 4 4 4 4 5 4 4 4 4 3 3 3 3 3 4 3 3 3 3 2 2 2 3 4 4 4 5 5 4 4 5 7 10 11
Wind_Direction
205 197 206 217 220 222 212 195 201 239 253 234 234 253 257 262 267 251 257 278 279 281 285 287 288 289 290 291 291 291 291 292 294 295 296 297 298 297
202 197 210 213 213 217 218 223 217 224 249 248 229 268 272 279 279 268 259 278 275 283 285 288 288 288 290 292 293 293 293 292 293 294 295 296 298 298
200 198 218 219 218 221 219 226 232 226 249 267 259 281 267 268 286 285 279 270 275 284 287 288 287 287 292 295 295 294 295 295 293 294 296 297 298 299
206 203 218 218 225 224 220 228 234 231 236 258 267 266 262 264 274 282 291 294 285 289 285 281 283 287 291 292 294 294 296 296 295 297 297 296 297 299
205 206 214 207 225 233 232 235 242 248 241 249 263 263 276 290 294 292 289 286 288 288 280 276 280 286 289 288 290 292 293 296 297 296 297 297 296 298
209 212 212 213 223 225 229 237 239 244 244 248 259 270 275 294 295 284 289 280 286 290 279 286 287 289 288 288 290 291 291 293 295 296 296 296 297 299
204 207 206 213 230 228 230 227 219 229 242 249 257 266 263 281 266 270 277 290 286 272 283 283 284 282 286 288 289 290 292 293 295 296 297 295 296 296
218 231 220 215 253 253 252 239 223 221 232 237 247 254 260 259 264 268 281 297 289 279 288 286 277 273 274 270 289 291 290 291 295 298 301 299 295 293
226 227 251 253 241 253 260 257 252 248 233 231 246 253 262 257 257 262 260 262 265 282 292 285 275 270 275 281 286 286 287 293 297 300 303 303 299 296
239 231 240 255 254 247 246 255 257 259 252 246 252 260 264 262 242 247 257 269 284 287 271 275 282 282 294 286 285 283 289 298 305 306 305 305 305 302
249 238 238 251 265 259 251 256 266 272 271 261 262 266 273 279 270 261 260 267 277 273 242 258 294 305 291 275 279 290 300 304 307 307 309 311 310 307
280 266 259 267 272 262 253 253 262 269 270 274 272 276 276 279 267 243 234 246 267 270 233 243 291 323 304 286 295 306 297 298 304 307 309 312 312 311
285 285 279 282 281 274 267 258 266 277 266 262 269 275 279 275 266 252 236 235 243 252 242 222 266 273 267 293 305 295 287 303 308 305 306 309 310 308
287 290 287 287 284 284 281 282 284 284 269 262 266 266 265 264 260 249 241 242 248 254 247 225 244 247 264 281 288 296 302 302 297 295 298 304 304 303
287 287 288 285 285 282 283 286 286 269 258 258 261 265 261 261 260 252 249 248 261 266 248 247 250 257 255 265 277 288 299 296 280 284 293 297 298 302
298 293 290 288 288 291 290 284 271 258 249 253 261 265 268 259 255 249 249 250 259 273 256 243 245 242 254 266 268 277 276 278 292 290 290 291 294 289
309 299 285 279 277 281 281 276 269 264 261 264 263 263 259 256 258 248 242 241 243 262 274 273 258 257 261 260 266 265 271 277 277 284 289 289 285 282
307 286 284 276 270 269 266 267 263 258 257 260 257 256 260 260 266 260 245 238 250 259 266 268 272 302 305 282 253 261 269 275 283 285 280 283 288 287
292 280 278 277 274 271 265 258 259 259 256 252 253 254 254 255 255 252 250 254 260 264 262 247 239 243 273 286 284 257 264 278 286 286 277 271 280 289
281 278 278 278 280 276 272 269 269 268 258 254 253 253 248 251 248 243 241 245 256 264 270 255 235 234 244 263 275 284 275 269 269 274 280 282 281 289
297 288 284 282 278 276 274 269 265 262 259 256 254 249 243 240 244 242 242 242 243 249 256 261 260 263 277 289 282 285 286 281 280 275 276 287 295 295
294 292 288 286 284 276 272 267 262 258 255 251 251 248 242 235 241 242 240 239 240 246 257 271 284 284 256 250 265 277 290 298 300 298 285 271 266 265
286 285 285 286 285 281 276 271 264 261 255 252 250 247 242 239 240 241 241 236 238 244 252 266 276 259 255 255 268 280 286 294 299 302 296 293 289 284